CW2551 Weather Reports


time (UTC)temp
C
wind
direction
speed
KPH
gust
KPH
rain 1hr
cm
rain 24hr
cm
rain mn
cm
humidity
%
barometer
mb
20260506045104 18 313 0.0 0.0 0.00 0.00 0.00 57 1013.8
20260506045022 18 313 0.0 0.0 0.00 0.00 0.00 57 1013.7
20260506044604 18 313 0.0 0.0 0.00 0.00 0.00 57 1013.7
20260506044022 18 313 0.0 0.0 0.00 0.00 0.00 56 1013.5
20260506043104 19 313 0.0 0.0 0.00 0.00 0.00 55 1013.4
20260506043023 19 313 0.0 0.0 0.00 0.00 0.00 54 1013.4
20260506042604 19 313 0.0 0.0 0.00 0.00 0.00 54 1013.4
20260506042107 19 313 0.0 0.0 0.00 0.00 0.00 54 1013.3
20260506042022 20 313 0.0 0.0 0.00 0.00 0.00 53 1013.2
20260506041604 20 313 0.0 0.0 0.00 0.00 0.00 53 1013.2
20260506041104 20 313 0.0 0.0 0.00 0.00 0.00 53 1013.0
20260506041022 20 313 0.0 0.0 0.00 0.00 0.00 53 1013.0
20260506040605 20 313 0.0 0.0 0.00 0.00 0.00 53 1013.0
20260506040022 20 313 0.0 0.0 0.00 0.00 0.00 52 1012.9
20260506035604 20 313 0.0 0.0 0.00 0.00 0.00 52 1012.9
20260506035104 20 313 0.0 0.0 0.00 0.00 0.00 51 1012.8
20260506035023 20 313 0.0 0.0 0.00 0.00 0.00 50 1012.7
20260506034604 20 313 0.0 0.0 0.00 0.00 0.00 50 1012.7
20260506034105 21 313 0.0 0.0 0.00 0.00 0.00 50 1012.5
20260506034024 21 314 0.0 0.0 0.00 0.00 0.00 49 1012.5
20260506033604 21 314 0.0 0.0 0.00 0.00 0.00 49 1012.5
20260506033106 21 315 0.0 0.0 0.00 0.00 0.00 48 1012.3
20260506033023 21 328 0.0 3.2 0.00 0.00 0.00 47 1012.2
20260506032105 21 333 0.0 0.0 0.00 0.00 0.00 47 1012.1
20260506032022 21 345 0.0 3.2 0.00 0.00 0.00 46 1012.1
20260506031105 22 346 0.0 0.0 0.00 0.00 0.00 45 1012.1
20260506031023 22 352 0.0 3.2 0.00 0.00 0.00 46 1012.0
20260506030604 22 352 0.0 3.2 0.00 0.00 0.00 46 1012.0
20260506030106 22 355 0.0 8.0 0.00 0.00 0.00 44 1011.8
20260506030023 22 306 0.0 0.0 0.00 0.00 0.00 43 1011.7
20260506025604 22 306 0.0 0.0 0.00 0.00 0.00 43 1011.7
20260506025104 23 306 0.0 0.0 0.00 0.00 0.00 42 1011.5
20260506025022 23 305 1.6 4.8 0.00 0.00 0.00 41 1011.4
20260506024605 23 305 1.6 4.8 0.00 0.00 0.00 41 1011.4
20260506024104 23 299 0.0 4.8 0.00 0.00 0.00 41 1011.3
20260506024022 23 306 1.6 4.8 0.00 0.00 0.00 40 1011.3
20260506023604 23 306 1.6 4.8 0.00 0.00 0.00 40 1011.3
20260506023105 23 2 4.8 12.9 0.00 0.00 0.00 39 1011.2
20260506022604 23 330 1.6 8.0 0.00 0.00 0.00 40 1011.2
20260506022104 24 331 1.6 4.8 0.00 0.00 0.00 39 1011.2
20260506022021 24 330 0.0 9.7 0.00 0.00 0.00 39 1011.1
20260506021604 24 330 0.0 9.7 0.00 0.00 0.00 39 1011.1
20260506021105 24 342 1.6 8.0 0.00 0.00 0.00 39 1011.1
20260506021022 24 327 1.6 9.7 0.00 0.00 0.00 40 1011.0
20260506020606 24 327 1.6 9.7 0.00 0.00 0.00 40 1011.0
20260506020104 25 271 1.6 4.8 0.00 0.00 0.00 41 1010.9
20260506020025 25 271 0.0 1.6 0.00 0.00 0.00 43 1010.9
20260506015022 25 251 0.0 1.6 0.00 0.00 0.00 44 1010.9
20260506014604 25 251 0.0 1.6 0.00 0.00 0.00 44 1010.9
20260506014104 25 337 0.0 4.8 0.00 0.00 0.00 42 1010.9
20260506012606 25 326 4.8 14.5 0.00 0.00 0.00 43 1010.9
20260506012022 25 314 0.0 12.9 0.00 0.00 0.00 42 1010.8
20260506011605 25 314 0.0 12.9 0.00 0.00 0.00 42 1010.8
20260506011104 25 338 4.8 8.0 0.00 0.00 0.00 42 1010.9
20260506011022 25 355 6.4 9.7 0.00 0.00 0.00 43 1010.8
20260506010604 25 355 6.4 9.7 0.00 0.00 0.00 43 1010.8
20260506010025 25 18 3.2 11.3 0.00 0.00 0.00 43 1010.7
20260506005606 25 18 3.2 11.3 0.00 0.00 0.00 43 1010.7
20260506005105 25 349 3.2 12.9 0.00 0.00 0.00 44 1010.7
20260506004605 25 351 3.2 8.0 0.00 0.00 0.00 43 1010.8
20260506004104 26 287 0.0 4.8 0.00 0.00 0.00 44 1010.8
20260506004022 25 247 0.0 4.8 0.00 0.00 0.00 43 1010.7
20260506003604 25 247 0.0 4.8 0.00 0.00 0.00 43 1010.7
20260506003104 26 248 1.6 4.8 0.00 0.00 0.00 43 1010.8
20260506003024 26 328 0.0 8.0 0.00 0.00 0.00 44 1010.7
20260506002604 26 328 0.0 8.0 0.00 0.00 0.00 44 1010.7
20260506002104 26 345 8.0 16.1 0.00 0.00 0.00 43 1010.8
20260506001604 25 347 3.2 8.0 0.00 0.00 0.00 45 1010.7
20260506001104 26 302 0.0 3.2 0.00 0.00 0.00 43 1010.7
20260506001023 26 278 0.0 0.0 0.00 0.00 0.00 46 1010.7
20260506000105 26 326 0.0 1.6 0.00 0.00 0.00 43 1010.7
20260505235605 25 326 0.0 4.8 0.00 0.00 0.00 44 1010.7
20260505235104 25 8 3.2 14.5 0.00 0.00 0.00 45 1010.7
20260505235021 25 0 0.0 4.8 0.00 0.00 0.00 45 1010.7
20260505234604 25 0 0.0 4.8 0.00 0.00 0.00 45 1010.7
20260505234104 26 0 0.0 0.0 0.00 0.00 0.00 47 1010.7
20260505234022 25 0 0.0 0.0 0.00 0.00 0.00 45 1010.7
20260505233604 25 0 0.0 0.0 0.00 0.00 0.00 45 1010.7
20260505233104 26 5 1.6 14.5 0.00 0.00 0.00 42 1010.8
20260505233027 25 37 0.0 9.7 0.00 0.00 0.00 44 1010.8
20260505232605 25 37 0.0 9.7 0.00 0.00 0.00 44 1010.8
20260505232104 25 325 0.0 4.8 0.00 0.00 0.00 45 1010.8
20260505231104 26 309 3.2 8.0 0.00 0.00 0.00 42 1010.9
20260505231022 25 282 0.0 4.8 0.00 0.00 0.00 44 1010.9
20260505230605 25 282 0.0 4.8 0.00 0.00 0.00 44 1010.9
20260505230104 26 326 0.0 4.8 0.00 0.00 0.00 40 1011.0
20260505230026 26 0 4.8 12.9 0.00 0.00 0.00 41 1011.1
20260505225604 26 0 4.8 12.9 0.00 0.00 0.00 41 1011.1
20260505225105 25 344 0.0 0.0 0.00 0.00 0.00 43 1011.2
20260505225021 25 342 0.0 3.2 0.00 0.00 0.00 41 1011.2
20260505224606 25 342 0.0 3.2 0.00 0.00 0.00 41 1011.2
20260505224022 25 204 0.0 0.0 0.00 0.00 0.00 44 1011.3
20260505223605 25 204 0.0 0.0 0.00 0.00 0.00 44 1011.3
20260505223104 25 202 0.0 0.0 0.00 0.00 0.00 43 1011.4
20260505223023 25 69 0.0 0.0 0.00 0.00 0.00 43 1011.5
20260505222104 25 69 0.0 4.8 0.00 0.00 0.00 42 1011.5
20260505222021 26 77 0.0 4.8 0.00 0.00 0.00 42 1011.6
20260505221604 26 77 0.0 4.8 0.00 0.00 0.00 42 1011.6
20260505221104 26 71 1.6 4.8 0.00 0.00 0.00 43 1011.6
20260505221023 25 56 1.6 12.9 0.00 0.00 0.00 45 1011.7
20260505220604 25 56 1.6 12.9 0.00 0.00 0.00 45 1011.7
20260505220024 23 280 0.0 4.8 0.00 0.00 0.00 46 1011.8
20260505215605 23 280 0.0 4.8 0.00 0.00 0.00 46 1011.8
20260505215105 24 290 0.0 4.8 0.00 0.00 0.00 46 1011.9
20260505215021 24 292 0.0 8.0 0.00 0.00 0.00 46 1011.9
20260505214104 25 316 4.8 12.9 0.00 0.00 0.00 47 1012.0
20260505214023 24 2 1.6 12.9 0.00 0.00 0.00 48 1012.0
20260505213605 24 2 1.6 12.9 0.00 0.00 0.00 48 1012.0
20260505213025 24 330 3.2 8.0 0.00 0.00 0.00 49 1012.0
20260505212604 24 330 3.2 8.0 0.00 0.00 0.00 49 1012.0
20260505212104 23 341 1.6 8.0 0.00 0.00 0.00 50 1012.1
20260505212023 23 321 0.0 4.8 0.00 0.00 0.00 49 1012.2
20260505211604 23 321 0.0 4.8 0.00 0.00 0.00 49 1012.2
20260505211104 23 354 0.0 8.0 0.00 0.00 0.00 48 1012.3
20260505211024 23 327 3.2 12.9 0.00 0.00 0.00 49 1012.3
20260505210604 23 327 3.2 12.9 0.00 0.00 0.00 49 1012.3
20260505210104 23 94 0.0 4.8 0.00 0.00 0.00 48 1012.4
20260505210023 23 62 3.2 4.8 0.00 0.00 0.00 47 1012.5
20260505205604 23 62 3.2 4.8 0.00 0.00 0.00 47 1012.5
20260505205104 23 32 0.0 8.0 0.00 0.00 0.00 46 1012.5
20260505205022 23 63 4.8 12.9 0.00 0.00 0.00 49 1012.7
20260505204605 23 63 4.8 12.9 0.00 0.00 0.00 49 1012.7
20260505204104 22 357 1.6 8.0 0.00 0.00 0.00 53 1012.6
20260505204023 22 280 0.0 4.8 0.00 0.00 0.00 52 1012.7
20260505203605 22 280 0.0 4.8 0.00 0.00 0.00 52 1012.7
20260505203104 22 277 1.6 9.7 0.00 0.00 0.00 52 1012.8
20260505203023 22 34 1.6 8.0 0.00 0.00 0.00 52 1012.8
20260505202104 22 33 3.2 8.0 0.00 0.00 0.00 52 1012.9
20260505202021 22 14 3.2 19.3 0.00 0.00 0.00 52 1012.9
20260505201604 22 14 3.2 19.3 0.00 0.00 0.00 52 1012.9
20260505201103 21 32 3.2 8.0 0.00 0.00 0.00 58 1013.0
20260505200604 21 37 3.2 14.5 0.00 0.00 0.00 55 1013.0
20260505200025 21 331 4.8 12.9 0.00 0.00 0.00 55 1013.2
20260505195604 21 331 4.8 12.9 0.00 0.00 0.00 55 1013.2
20260505195104 21 71 3.2 4.8 0.00 0.00 0.00 56 1013.1
20260505195021 21 14 3.2 11.3 0.00 0.00 0.00 60 1013.2
20260505194604 21 14 3.2 11.3 0.00 0.00 0.00 60 1013.2
20260505194021 20 346 3.2 14.5 0.00 0.00 0.00 60 1013.2
20260505193604 20 346 3.2 14.5 0.00 0.00 0.00 60 1013.2
20260505193104 20 13 0.0 3.2 0.00 0.00 0.00 58 1013.3
20260505193026 20 16 1.6 11.3 0.00 0.00 0.00 61 1013.3
20260505192604 20 16 1.6 11.3 0.00 0.00 0.00 61 1013.3
20260505192021 20 358 3.2 8.0 0.00 0.00 0.00 59 1013.3
20260505191604 20 358 3.2 8.0 0.00 0.00 0.00 59 1013.3
20260505191104 20 263 1.6 8.0 0.00 0.00 0.00 60 1013.3
20260505191023 20 291 3.2 4.8 0.00 0.00 0.00 60 1013.4
20260505190604 20 291 3.2 4.8 0.00 0.00 0.00 60 1013.4
20260505190104 19 5 4.8 9.7 0.00 0.00 0.00 60 1013.4
20260505190024 19 294 0.0 8.0 0.00 0.00 0.00 61 1013.4
20260505185605 19 294 0.0 8.0 0.00 0.00 0.00 61 1013.4
20260505184604 19 35 3.2 4.8 0.00 0.00 0.00 62 1013.5
20260505184104 19 5 4.8 8.0 0.00 0.00 0.00 62 1013.5
20260505184022 18 239 1.6 8.0 0.00 0.00 0.00 65 1013.6
20260505183604 18 239 1.6 8.0 0.00 0.00 0.00 65 1013.6
20260505183104 18 54 1.6 9.7 0.00 0.00 0.00 62 1013.6
20260505182104 18 10 3.2 4.8 0.00 0.00 0.00 64 1013.6
20260505182021 18 23 4.8 16.1 0.00 0.00 0.00 65 1013.6
20260505181104 18 333 0.0 4.8 0.00 0.00 0.00 65 1013.6
20260505181021 18 331 1.6 8.0 0.00 0.00 0.00 68 1013.7
20260505180104 17 348 1.6 9.7 0.00 0.00 0.00 67 1013.7
20260505180023 18 9 3.2 12.9 0.00 0.00 0.00 67 1013.7
20260505175604 18 9 3.2 12.9 0.00 0.00 0.00 67 1013.7
20260505175021 17 39 1.6 8.0 0.00 0.00 0.00 69 1013.6
20260505174604 17 39 1.6 8.0 0.00 0.00 0.00 69 1013.6
20260505174105 17 70 0.0 8.0 0.00 0.00 0.00 67 1013.6
20260505174025 17 244 0.0 0.0 0.00 0.00 0.00 69 1013.7
20260505173104 16 244 0.0 0.0 0.00 0.00 0.00 69 1013.7
20260505172104 16 238 0.0 0.0 0.00 0.00 0.00 73 1013.7
20260505172021 16 230 0.0 0.0 0.00 0.00 0.00 73 1013.8
20260505171604 16 230 0.0 0.0 0.00 0.00 0.00 73 1013.8
20260505171106 16 167 0.0 0.0 0.00 0.00 0.00 72 1013.9
20260505171022 15 153 0.0 0.0 0.00 0.00 0.00 74 1013.8
20260505170104 15 153 0.0 0.0 0.00 0.00 0.00 74 1013.9
20260505170023 15 144 0.0 3.2 0.00 0.00 0.00 74 1014.0
20260505165604 15 144 0.0 3.2 0.00 0.00 0.00 74 1014.0
20260505165104 15 92 0.0 0.0 0.00 0.00 0.00 74 1014.0
20260505165021 15 88 0.0 4.8 0.00 0.00 0.00 74 1014.1
20260505164106 15 97 0.0 0.0 0.00 0.00 0.00 75 1014.0
20260505164021 15 98 0.0 1.6 0.00 0.00 0.00 75 1014.1
20260505163604 15 98 0.0 1.6 0.00 0.00 0.00 75 1014.1
20260505162604 15 98 0.0 0.0 0.00 0.00 0.00 77 1014.0
20260505162105 15 98 0.0 0.0 0.00 0.00 0.00 77 1014.2
20260505161604 14 98 0.0 0.0 0.00 0.00 0.00 78 1014.2
20260505161106 14 98 0.0 0.0 0.00 0.00 0.00 78 1014.1
20260505161021 14 98 0.0 0.0 0.00 0.00 0.00 79 1014.2
20260505160604 14 98 0.0 0.0 0.00 0.00 0.00 79 1014.2
20260505160106 14 98 0.0 0.0 0.00 0.00 0.00 79 1014.2
20260505153105 13 98 0.0 0.0 0.00 0.00 0.00 82 1014.2
20260505153025 13 98 0.0 0.0 0.00 0.00 0.00 83 1014.1
20260505152604 13 98 0.0 0.0 0.00 0.00 0.00 83 1014.1
20260505152021 13 98 0.0 0.0 0.00 0.00 0.00 84 1014.0
20260505151605 13 98 0.0 0.0 0.00 0.00 0.00 84 1014.0
20260505151104 13 98 0.0 0.0 0.00 0.00 0.00 84 1014.0
20260505151023 13 98 0.0 0.0 0.00 0.00 0.00 85 1014.0
20260505150604 13 98 0.0 0.0 0.00 0.00 0.00 85 1014.0
20260505150106 13 98 0.0 0.0 0.00 0.00 0.00 85 1013.9
20260505140604 12 98 0.0 0.0 0.00 0.00 0.00 85 1013.5
20260505140104 12 98 0.0 0.0 0.00 0.00 0.00 85 1013.5
20260505130105 12 97 0.0 0.0 0.00 0.00 0.00 85 1013.0
20260505125023 12 98 0.0 0.0 0.00 0.00 0.00 85 1012.9
20260505124105 12 98 0.0 0.0 0.00 0.00 0.00 86 1012.9
20260505124022 12 97 0.0 0.0 0.00 0.00 0.00 86 1012.9
20260505123606 12 97 0.0 0.0 0.00 0.00 0.00 86 1012.9
20260505123104 12 98 0.0 0.0 0.00 0.00 0.00 86 1012.8
20260505123021 12 98 0.0 0.0 0.00 0.00 0.00 86 1012.8
20260505122604 12 98 0.0 0.0 0.00 0.00 0.00 86 1012.8
20260505122104 12 97 0.0 0.0 0.00 0.00 0.00 87 1012.8
20260505122021 12 98 0.0 0.0 0.00 0.00 0.00 87 1012.8
20260505121606 12 98 0.0 0.0 0.00 0.00 0.00 87 1012.8
20260505121104 12 97 0.0 0.0 0.00 0.00 0.00 87 1012.7
20260505120604 11 98 0.0 0.0 0.00 0.00 0.00 87 1012.7
20260505120106 11 98 0.0 0.0 0.00 0.00 0.00 88 1012.7
20260505120021 11 98 0.0 0.0 0.00 0.00 0.00 88 1012.5
20260505115604 11 98 0.0 0.0 0.00 0.00 0.00 88 1012.5
20260505115104 11 97 0.0 0.0 0.00 0.00 0.00 88 1012.5
20260505115023 11 98 0.0 0.0 0.00 0.00 0.00 88 1012.6
20260505114604 11 98 0.0 0.0 0.00 0.00 0.00 88 1012.6
20260505114104 11 97 0.0 0.0 0.00 0.00 0.00 88 1012.6
20260505114021 11 97 0.0 0.0 0.00 0.00 0.00 87 1012.6
20260505113021 11 97 0.0 0.0 0.00 0.00 0.00 87 1012.5
20260505112603 11 97 0.0 0.0 0.00 0.00 0.00 87 1012.5
20260505111604 11 98 0.0 0.0 0.00 0.00 0.00 87 1012.5
20260505111021 11 98 0.0 0.0 0.00 0.00 0.00 87 1012.4
20260505110604 11 98 0.0 0.0 0.00 0.00 0.00 87 1012.4
20260505110104 11 97 0.0 0.0 0.00 0.00 0.00 86 1012.3
20260505102105 11 97 0.0 0.0 0.00 0.00 0.00 85 1012.2
20260505102021 11 97 0.0 0.0 0.00 0.00 0.00 85 1012.2
20260505101606 11 97 0.0 0.0 0.00 0.00 0.00 85 1012.2
20260505101104 11 97 0.0 0.0 0.00 0.00 0.00 85 1012.1
20260505100604 11 97 0.0 0.0 0.00 0.00 0.00 85 1012.2
20260505100104 11 97 0.0 0.0 0.00 0.00 0.00 84 1012.1
20260505100022 11 97 0.0 0.0 0.00 0.00 0.00 84 1012.2
20260505095605 11 97 0.0 0.0 0.00 0.00 0.00 84 1012.2
20260505095105 11 97 0.0 0.0 0.00 0.00 0.00 84 1012.1
20260505095021 11 97 0.0 0.0 0.00 0.00 0.00 84 1012.2
20260505094605 11 97 0.0 0.0 0.00 0.00 0.00 84 1012.2
20260505094104 11 97 0.0 0.0 0.00 0.00 0.00 83 1012.2
20260505094021 11 97 0.0 0.0 0.00 0.00 0.00 83 1012.2
20260505093604 11 97 0.0 0.0 0.00 0.00 0.00 83 1012.2
20260505093104 12 98 0.0 0.0 0.00 0.00 0.00 83 1012.2
20260505093021 12 97 0.0 0.0 0.00 0.00 0.00 83 1012.2
20260505092604 12 97 0.0 0.0 0.00 0.00 0.00 83 1012.2
20260505092104 12 97 0.0 0.0 0.00 0.00 0.00 82 1012.1
20260505092021 12 97 0.0 0.0 0.00 0.00 0.00 82 1012.1
20260505091606 12 97 0.0 0.0 0.00 0.00 0.00 82 1012.1
20260505091104 12 98 0.0 0.0 0.00 0.00 0.00 82 1012.1
20260505091023 12 97 0.0 0.0 0.00 0.00 0.00 81 1012.0
20260505090606 12 97 0.0 0.0 0.00 0.00 0.00 81 1012.0
20260505090104 12 97 0.0 0.0 0.00 0.00 0.00 81 1012.1
20260505090021 12 97 0.0 0.0 0.00 0.00 0.00 81 1012.1
20260505085604 12 97 0.0 0.0 0.00 0.00 0.00 81 1012.1
20260505085105 12 97 0.0 0.0 0.00 0.00 0.00 80 1012.1
20260505085021 12 97 0.0 0.0 0.00 0.00 0.00 80 1012.0
20260505084021 13 97 0.0 0.0 0.00 0.00 0.00 79 1011.9
20260505083604 13 97 0.0 0.0 0.00 0.00 0.00 79 1011.9
20260505083104 13 97 0.0 0.0 0.00 0.00 0.00 79 1011.9
20260505083022 13 97 0.0 0.0 0.00 0.00 0.00 79 1011.9
20260505082604 13 97 0.0 0.0 0.00 0.00 0.00 79 1011.9
20260505082104 13 97 0.0 0.0 0.00 0.00 0.00 78 1012.0
20260505082021 13 97 0.0 0.0 0.00 0.00 0.00 78 1011.9
20260505081020 13 97 0.0 0.0 0.00 0.00 0.00 78 1011.9
20260505080604 13 97 0.0 0.0 0.00 0.00 0.00 78 1011.9
20260505080104 13 97 0.0 0.0 0.00 0.00 0.00 77 1011.8
20260505075604 13 97 0.0 0.0 0.00 0.00 0.00 77 1011.8
20260505075106 14 97 0.0 0.0 0.00 0.00 0.00 76 1011.8
20260505075021 14 98 0.0 0.0 0.00 0.00 0.00 76 1011.8
20260505074604 14 98 0.0 0.0 0.00 0.00 0.00 76 1011.8
20260505074106 14 97 0.0 0.0 0.00 0.00 0.00 76 1011.8
20260505074021 14 97 0.0 0.0 0.00 0.00 0.00 76 1011.7
20260505073604 14 97 0.0 0.0 0.00 0.00 0.00 76 1011.7
20260505073021 15 97 0.0 0.0 0.00 0.00 0.00 75 1011.6
20260505072604 15 97 0.0 0.0 0.00 0.00 0.00 75 1011.6
20260505072104 15 97 0.0 0.0 0.00 0.00 0.00 74 1011.6
20260505072021 15 97 0.0 0.0 0.00 0.00 0.00 74 1011.6
20260505070604 15 97 0.0 0.0 0.00 0.00 0.00 74 1011.4
20260505070104 15 97 0.0 0.0 0.00 0.00 0.00 73 1011.4
20260505065604 15 108 0.0 0.0 0.00 0.00 0.00 73 1011.3
20260505065105 16 108 0.0 0.0 0.00 0.00 0.00 73 1011.2
20260505065021 16 108 0.0 0.0 0.00 0.00 0.00 72 1011.2
20260505064604 16 108 0.0 0.0 0.00 0.00 0.00 72 1011.2
20260505064105 16 108 0.0 0.0 0.00 0.00 0.00 72 1011.1
20260505064021 16 108 0.0 0.0 0.00 0.00 0.00 72 1011.1
20260505063604 16 108 0.0 0.0 0.00 0.00 0.00 72 1011.1
20260505063103 16 108 0.0 0.0 0.00 0.00 0.00 71 1011.0
20260505063023 16 108 0.0 0.0 0.00 0.00 0.00 71 1010.9
20260505062603 16 108 0.0 0.0 0.00 0.00 0.00 71 1010.9
20260505062104 16 108 0.0 0.0 0.00 0.00 0.00 71 1010.8
20260505062023 16 108 0.0 0.0 0.00 0.00 0.00 71 1010.8
20260505061604 16 108 0.0 0.0 0.00 0.00 0.00 71 1010.8
20260505061103 16 108 0.0 0.0 0.00 0.00 0.00 70 1010.6
20260505061023 16 108 0.0 0.0 0.00 0.00 0.00 70 1010.6
20260505060604 16 108 0.0 0.0 0.00 0.00 0.00 70 1010.6
20260505060105 16 108 0.0 0.0 0.00 0.00 0.00 69 1010.6
20260505060023 16 108 0.0 0.0 0.00 0.00 0.00 69 1010.6
20260505055105 16 108 0.0 0.0 0.00 0.00 0.00 69 1010.5
20260505055021 16 108 0.0 0.0 0.00 0.00 0.00 69 1010.5
20260505054604 16 108 0.0 0.0 0.00 0.00 0.00 69 1010.5
20260505054105 17 164 0.0 0.0 0.00 0.00 0.00 68 1010.4
20260505054021 17 279 0.0 0.0 0.00 0.00 0.00 68 1010.4
20260505053604 17 279 0.0 0.0 0.00 0.00 0.00 68 1010.4
20260505053104 17 292 0.0 0.0 0.00 0.00 0.00 68 1010.3
20260505053022 17 292 0.0 0.0 0.00 0.00 0.00 67 1010.3
20260505052605 17 292 0.0 0.0 0.00 0.00 0.00 67 1010.3
20260505052104 17 292 0.0 0.0 0.00 0.00 0.00 66 1010.1
20260505052023 17 292 0.0 0.0 0.00 0.00 0.00 66 1010.1
20260505051604 17 292 0.0 0.0 0.00 0.00 0.00 66 1010.1
20260505051104 17 292 0.0 0.0 0.00 0.00 0.00 65 1010.3
20260505050604 18 292 0.0 0.0 0.00 0.00 0.00 65 1010.1
20260505050106 18 292 0.0 0.0 0.00 0.00 0.00 64 1010.1